Sanford, FL

11:24 PM EST on December 03, 2016 (GMT -0500)
Orlando Sanford

Weather History for KSFB - January, 2013

Change the Weather History Date:

Thursday, January 24, 2013

  Actual Average Record
Temperature  
Mean Temperature 58 °F -  
Max Temperature 73 °F 70 °F 84 °F (1962)
Min Temperature 43 °F 47 °F 28 °F (2003)
Degree Days  
Heating Degree Days 7    
Growing Degree Days 8 (Base 50)    
Moisture  
Dew Point 43 °F    
Average Humidity 61    
Maximum Humidity 86    
Minimum Humidity 34    
Precipitation  
Precipitation 0.00 in - - ()
Sea Level Pressure  
Sea Level Pressure 30.29 in    
Wind  
Wind Speed 4 mph (WNW)    
Max Wind Speed 10 mph    
Max Gust Speed 16 mph    
Visibility 10 miles    
Events      
Averages and records for this station are not official NWS values.
T = Trace of Precipitation, MM = Missing Value Source: NWS Daily Summary

Daily Weather History Graph

Daily Weather History Graph

Search for Another Location

Airport or City:

Trip Planner

Search our weather history database for the weather conditions in past years. The results will help you decide how hot, cold, wet, or windy it might be!

Date:

Astronomy

Jan. 24, 2013 Rise Set
Actual Time 7:16 AM EST 5:57 PM EST
Civil Twilight 6:51 AM EST 6:22 PM EST
Nautical Twilight 6:23 AM EST 6:51 PM EST
Astronomical Twilight 5:54 AM EST 7:19 PM EST
Moon 4:00 PM EST (1/24) 5:10 AM EST (1/24)
Length of Visible Light 11h 31m
Length of Day
10h 40m
Waxing Gibbous, 94% of the Moon is Illuminated
Jan 24
Waxing Gibbous
Jan 26
Full
Feb 3
Last Quarter
Feb 10
New
Feb 17
First Quarter

Hourly Weather History & Observations

Time (EST) Temp. Windchill Dew Point Humidity Pressure Visibility Wind Dir Wind Speed Gust Speed Precip Events Conditions
12:53 AM 48.9 °F - 41.0 °F 74% 30.30 in 10.0 mi Calm Calm - N/A   Clear
1:53 AM 46.0 °F 44.8 °F 39.9 °F 79% 30.29 in 10.0 mi WSW 3.5 mph - N/A   Clear
2:53 AM 46.0 °F - 39.9 °F 79% 30.29 in 10.0 mi Calm Calm - N/A   Clear
3:53 AM 46.0 °F 43.9 °F 41.0 °F 83% 30.29 in 10.0 mi NW 4.6 mph - N/A   Clear
4:53 AM 45.0 °F 43.5 °F 41.0 °F 86% 30.29 in 10.0 mi WNW 3.5 mph - N/A   Clear
5:53 AM 43.0 °F 40.3 °F 39.0 °F 86% 30.28 in 10.0 mi WNW 4.6 mph - N/A   Clear
6:53 AM 45.0 °F 42.6 °F 39.0 °F 80% 30.29 in 10.0 mi NW 4.6 mph - N/A   Clear
7:53 AM 46.0 °F - 39.0 °F 76% 30.31 in 10.0 mi Calm Calm - N/A   Clear
8:53 AM 52.0 °F - 39.9 °F 63% 30.33 in 10.0 mi NW 5.8 mph - N/A   Clear
9:53 AM 60.1 °F - 39.0 °F 46% 30.34 in 10.0 mi NW 6.9 mph - N/A   Clear
10:53 AM 66.0 °F - 42.1 °F 42% 30.34 in 10.0 mi NW 8.1 mph - N/A   Clear
11:53 AM 68.0 °F - 44.1 °F 42% 30.32 in 10.0 mi NNW 10.4 mph - N/A   Clear
12:53 PM 70.0 °F - 44.1 °F 39% 30.28 in 10.0 mi North 6.9 mph - N/A   Clear
1:53 PM 71.1 °F - 44.1 °F 38% 30.25 in 10.0 mi NW 9.2 mph - N/A   Clear
2:53 PM 73.0 °F - 44.1 °F 35% 30.24 in 10.0 mi NNW 8.1 mph - N/A   Partly Cloudy
3:53 PM 73.0 °F - 43.0 °F 34% 30.24 in 10.0 mi WNW 6.9 mph 16.1 mph N/A   Partly Cloudy
4:53 PM 71.1 °F - 44.1 °F 38% 30.23 in 10.0 mi West 9.2 mph - N/A   Scattered Clouds
5:53 PM 66.9 °F - 44.1 °F 44% 30.24 in 10.0 mi West 5.8 mph - N/A   Clear
6:53 PM 64.0 °F - 45.0 °F 50% 30.26 in 10.0 mi West 3.5 mph - N/A   Scattered Clouds
7:53 PM 61.0 °F - 46.0 °F 58% 30.27 in 10.0 mi Calm Calm - N/A   Clear
8:53 PM 59.0 °F - 46.0 °F 62% 30.28 in 10.0 mi West 3.5 mph - N/A   Clear
9:53 PM 57.9 °F - 48.0 °F 70% 30.29 in 10.0 mi Calm Calm - N/A   Scattered Clouds
10:53 PM 57.0 °F - 48.9 °F 74% 30.30 in 10.0 mi Calm Calm - N/A   Mostly Cloudy
11:53 PM 55.0 °F - 48.9 °F 80% 30.29 in 10.0 mi WSW 5.8 mph - N/A   Clear